BKN31 KLAX-NZAA

Flight info

Callsign BKN31
Flight time N/A
Altitude 30000
Route SUMMR2 FICKY B577 BELAN/N0508F320 B577 QUIGG/N0501F340 B577 TUT B575 DRAWN/N0492F360 B575 ELPAK
Aircraft B77W/H-SDE1E2E3FGHIJ2J3J4J5M1RWXY/LB1D1

Departure

Time N/A
Airport Los Angeles International Airport (KLAX)

Arrival

Time 2026-05-04 15:56
Airport Auckland International Airport (NZAA)
Time Latitude Longitude Altitude Speed Heading
2026-05-04 13:59 -24.45909 -176.93233 36120 ft 506 kts 211°
2026-05-04 13:59 -24.48998 -176.94994 36123 ft 505 kts 211°
2026-05-04 14:00 -24.58355 -177.00336 36120 ft 507 kts 211°
2026-05-04 14:00 -24.67697 -177.05676 36139 ft 505 kts 211°
2026-05-04 14:01 -24.73922 -177.09241 36114 ft 503 kts 211°
2026-05-04 14:02 -24.83211 -177.14566 36111 ft 502 kts 211°
2026-05-04 14:02 -24.89417 -177.18129 36117 ft 501 kts 210°
2026-05-04 14:03 -24.95603 -177.21686 36133 ft 501 kts 210°
2026-05-04 14:03 -25.01785 -177.25244 36150 ft 501 kts 211°
2026-05-04 14:04 -25.11006 -177.30569 36141 ft 499 kts 210°
2026-05-04 14:04 -25.17166 -177.34131 36140 ft 499 kts 210°
2026-05-04 14:05 -25.26365 -177.39459 36149 ft 500 kts 211°
2026-05-04 14:06 -25.32497 -177.43015 36142 ft 498 kts 210°
2026-05-04 14:06 -25.38640 -177.46580 36144 ft 495 kts 211°
2026-05-04 14:07 -25.44710 -177.50108 36116 ft 496 kts 210°
2026-05-04 14:07 -25.50847 -177.53680 36150 ft 495 kts 211°
2026-05-04 14:08 -25.56900 -177.57207 36140 ft 494 kts 211°
2026-05-04 14:08 -25.62984 -177.60756 36142 ft 492 kts 211°
2026-05-04 14:09 -25.72108 -177.66084 36145 ft 493 kts 211°
2026-05-04 14:10 -25.81224 -177.71419 36155 ft 491 kts 211°
2026-05-04 14:10 -25.87277 -177.74966 36158 ft 493 kts 211°
2026-05-04 14:11 -25.93280 -177.78487 36156 ft 491 kts 211°
2026-05-04 14:11 -26.02341 -177.83810 36157 ft 488 kts 211°
2026-05-04 14:12 -26.08350 -177.87346 36169 ft 490 kts 211°
2026-05-04 14:13 -26.17418 -177.92691 36164 ft 491 kts 212°
2026-05-04 14:13 -26.23434 -177.96240 36164 ft 489 kts 211°
2026-05-04 14:14 -26.29461 -177.99802 36166 ft 489 kts 211°
2026-05-04 14:14 -26.38454 -178.05122 36185 ft 489 kts 211°
2026-05-04 14:15 -26.50488 -178.12257 36195 ft 491 kts 212°
2026-05-04 14:16 -26.59561 -178.17648 36197 ft 491 kts 212°
2026-05-04 14:17 -26.68547 -178.22996 36206 ft 492 kts 212°
2026-05-04 14:18 -26.77610 -178.28401 36201 ft 491 kts 211°
2026-05-04 14:19 -26.89686 -178.35617 36203 ft 491 kts 212°
2026-05-04 14:19 -26.95710 -178.39224 36202 ft 492 kts 212°
2026-05-04 14:20 -27.01741 -178.42839 36207 ft 492 kts 212°
2026-05-04 14:20 -27.07783 -178.46464 36207 ft 491 kts 212°
2026-05-04 14:21 -27.16814 -178.51894 36202 ft 493 kts 212°
2026-05-04 14:21 -27.22881 -178.55547 36202 ft 495 kts 211°
2026-05-04 14:22 -27.28926 -178.59189 36190 ft 494 kts 212°
2026-05-04 14:22 -27.34998 -178.62854 36209 ft 495 kts 211°
2026-05-04 14:23 -27.44113 -178.68362 36210 ft 493 kts 212°
2026-05-04 14:24 -27.50140 -178.72012 36217 ft 495 kts 212°
2026-05-04 14:24 -27.56230 -178.75703 36217 ft 495 kts 212°
2026-05-04 14:25 -27.62289 -178.79381 36220 ft 496 kts 212°
2026-05-04 14:25 -27.71448 -178.84949 36227 ft 496 kts 212°
2026-05-04 14:26 -27.77501 -178.88634 36239 ft 497 kts 212°
2026-05-04 14:26 -27.83587 -178.92345 36252 ft 496 kts 212°
2026-05-04 14:27 -27.89690 -178.96069 36255 ft 496 kts 211°
2026-05-04 14:27 -27.95723 -178.99757 36264 ft 497 kts 212°
2026-05-04 14:28 -28.01808 -179.03481 36252 ft 498 kts 212°
2026-05-04 14:28 -28.07884 -179.07204 36272 ft 497 kts 211°
2026-05-04 14:29 -28.20027 -179.14659 36250 ft 496 kts 212°
2026-05-04 14:30 -28.26084 -179.18387 36255 ft 495 kts 212°
2026-05-04 14:31 -28.35198 -179.24002 36242 ft 496 kts 212°
2026-05-04 14:32 -28.47320 -179.31488 36252 ft 496 kts 212°
2026-05-04 14:32 -28.53373 -179.35234 36262 ft 496 kts 212°
2026-05-04 14:33 -28.59451 -179.39000 36262 ft 496 kts 212°
2026-05-04 14:33 -28.65503 -179.42755 36263 ft 495 kts 212°
2026-05-04 14:34 -28.71525 -179.46497 36259 ft 496 kts 212°
2026-05-04 14:34 -28.77594 -179.50273 36264 ft 496 kts 212°
2026-05-04 14:35 -28.83669 -179.54057 36280 ft 495 kts 212°
2026-05-04 14:35 -28.89712 -179.57826 36287 ft 496 kts 212°
2026-05-04 14:36 -28.95782 -179.61618 36296 ft 497 kts 212°
2026-05-04 14:36 -29.01857 -179.65418 36302 ft 496 kts 212°
2026-05-04 14:37 -29.07861 -179.69177 36309 ft 494 kts 212°
2026-05-04 14:37 -29.13934 -179.72987 36308 ft 497 kts 212°
2026-05-04 14:38 -29.19987 -179.76787 36299 ft 495 kts 212°
2026-05-04 14:38 -29.26035 -179.80592 36296 ft 497 kts 212°
2026-05-04 14:39 -29.32080 -179.84398 36284 ft 496 kts 212°
2026-05-04 14:39 -29.38137 -179.88217 36294 ft 497 kts 212°
2026-05-04 14:40 -29.47225 -179.93957 36292 ft 496 kts 212°
2026-05-04 14:40 -29.53272 -179.97784 36301 ft 496 kts 212°
2026-05-04 14:41 -29.59293 179.98402 36300 ft 495 kts 212°
2026-05-04 14:42 -29.71368 179.90735 36301 ft 497 kts 212°
2026-05-04 14:42 -29.77405 179.86896 36294 ft 494 kts 212°
2026-05-04 14:43 -29.83454 179.83040 36298 ft 496 kts 212°
2026-05-04 14:43 -29.89493 179.79187 36292 ft 495 kts 212°
2026-05-04 14:44 -29.95539 179.75325 36287 ft 496 kts 212°
2026-05-04 14:44 -30.01561 179.71472 36330 ft 496 kts 212°
2026-05-04 14:45 -30.07595 179.67606 36301 ft 494 kts 213°
2026-05-04 14:45 -30.13615 179.63742 36313 ft 495 kts 212°
2026-05-04 14:46 -30.16629 179.61804 36009 ft 494 kts 212°
2026-05-04 14:46 -30.19626 179.59878 36554 ft 493 kts 212°
2026-05-04 14:46 -30.22625 179.57948 36073 ft 500 kts 212°
2026-05-04 14:46 -30.25641 179.56009 36524 ft 495 kts 212°
2026-05-04 14:47 -30.28681 179.54050 36324 ft 498 kts 212°
2026-05-04 14:47 -30.31683 179.52115 36320 ft 494 kts 212°
2026-05-04 14:47 -30.37723 179.48216 36307 ft 499 kts 212°
2026-05-04 14:48 -30.40767 179.46249 36566 ft 498 kts 212°
2026-05-04 14:48 -30.43795 179.44292 36166 ft 497 kts 212°
2026-05-04 14:48 -30.46782 179.42360 36270 ft 494 kts 213°
2026-05-04 14:48 -30.49825 179.40390 36326 ft 499 kts 213°
2026-05-04 14:49 -30.55854 179.36482 36298 ft 497 kts 212°
2026-05-04 14:49 -30.61900 179.32558 36301 ft 499 kts 213°
2026-05-04 14:50 -30.67941 179.28632 36282 ft 498 kts 213°
2026-05-04 14:50 -30.73980 179.24701 36325 ft 497 kts 213°
2026-05-04 14:51 -30.80058 179.20735 36332 ft 500 kts 213°
2026-05-04 14:51 -30.86095 179.16795 36343 ft 500 kts 213°
2026-05-04 14:52 -30.92169 179.12823 36369 ft 498 kts 213°
2026-05-04 14:52 -30.98204 179.08872 36343 ft 499 kts 212°
2026-05-04 14:53 -31.04239 179.04915 36339 ft 500 kts 212°
2026-05-04 14:53 -31.10295 179.00937 36361 ft 497 kts 212°
2026-05-04 14:54 -31.16295 178.96992 36365 ft 497 kts 213°
2026-05-04 14:54 -31.22336 178.93013 36352 ft 498 kts 213°
2026-05-04 14:55 -31.28398 178.89014 36370 ft 500 kts 213°
2026-05-04 14:55 -31.34420 178.85036 36355 ft 496 kts 212°
2026-05-04 14:56 -31.40449 178.81047 36364 ft 498 kts 213°
2026-05-04 14:56 -31.46459 178.77066 36355 ft 499 kts 213°
2026-05-04 14:57 -31.52503 178.73055 36369 ft 499 kts 213°
2026-05-04 14:57 -31.58567 178.69025 36364 ft 498 kts 212°
2026-05-04 14:58 -31.64546 178.65047 36363 ft 497 kts 213°
2026-05-04 14:58 -31.70583 178.61021 36371 ft 498 kts 213°
2026-05-04 14:59 -31.76595 178.57008 36384 ft 498 kts 212°
2026-05-04 15:00 -31.85629 178.50966 36357 ft 498 kts 212°
2026-05-04 15:00 -31.91647 178.46933 36366 ft 499 kts 213°
2026-05-04 15:01 -32.00697 178.40858 36368 ft 498 kts 213°
2026-05-04 15:01 -32.06685 178.36830 36373 ft 496 kts 213°
2026-05-04 15:02 -32.12679 178.32793 36370 ft 497 kts 213°
2026-05-04 15:02 -32.18678 178.28744 36371 ft 497 kts 213°
2026-05-04 15:03 -32.24715 178.24664 36373 ft 500 kts 213°
2026-05-04 15:03 -32.30707 178.20610 36380 ft 498 kts 213°
2026-05-04 15:04 -32.36728 178.16528 36383 ft 496 kts 213°
2026-05-04 15:04 -32.42732 178.12453 36377 ft 499 kts 213°
2026-05-04 15:05 -32.48721 178.08380 36386 ft 497 kts 213°
2026-05-04 15:05 -32.54721 178.04295 36389 ft 496 kts 213°
2026-05-04 15:06 -32.60687 178.00226 36386 ft 497 kts 213°
2026-05-04 15:07 -32.69646 177.94104 36418 ft 494 kts 214°
2026-05-04 15:07 -32.75601 177.90025 36383 ft 497 kts 214°
2026-05-04 15:08 -32.81609 177.85906 36346 ft 496 kts 213°
2026-05-04 15:08 -32.87575 177.81807 36389 ft 500 kts 213°
2026-05-04 15:09 -32.93573 177.77683 36389 ft 495 kts 213°
2026-05-04 15:09 -32.99548 177.73566 36403 ft 496 kts 213°
2026-05-04 15:10 -33.08523 177.67369 36425 ft 496 kts 213°
2026-05-04 15:11 -33.17479 177.61171 36407 ft 496 kts 213°
2026-05-04 15:11 -33.23426 177.57047 36390 ft 497 kts 213°
2026-05-04 15:12 -33.29400 177.52898 36403 ft 496 kts 213°
2026-05-04 15:12 -33.35368 177.48746 36416 ft 497 kts 213°
2026-05-04 15:13 -33.41345 177.44582 36420 ft 497 kts 213°
2026-05-04 15:13 -33.47280 177.40440 36422 ft 498 kts 213°
2026-05-04 15:14 -33.53278 177.36247 36413 ft 498 kts 213°
2026-05-04 15:14 -33.59237 177.32075 36422 ft 499 kts 214°
2026-05-04 15:15 -33.65223 177.27878 36421 ft 498 kts 214°
2026-05-04 15:15 -33.71197 177.23682 36423 ft 499 kts 214°
2026-05-04 15:16 -33.80179 177.17360 36423 ft 498 kts 214°
2026-05-04 15:17 -33.89151 177.11031 36430 ft 498 kts 214°
2026-05-04 15:17 -33.98097 177.04703 36414 ft 499 kts 214°
2026-05-04 15:18 -34.04127 177.00427 36433 ft 502 kts 214°
2026-05-04 15:19 -34.13141 176.94026 36421 ft 501 kts 214°
2026-05-04 15:19 -34.21608 176.86801 36421 ft 495 kts 220°
2026-05-04 15:20 -34.27130 176.81876 36427 ft 496 kts 220°
2026-05-04 15:20 -34.32660 176.76935 36419 ft 495 kts 220°
2026-05-04 15:21 -34.38201 176.71974 36419 ft 497 kts 220°
2026-05-04 15:22 -34.46546 176.64487 36426 ft 497 kts 220°
2026-05-04 15:22 -34.54856 176.57013 36452 ft 494 kts 220°
2026-05-04 15:23 -34.60358 176.52051 36456 ft 497 kts 220°
2026-05-04 15:23 -34.65907 176.47041 36455 ft 497 kts 220°
2026-05-04 15:24 -34.76985 176.37012 36444 ft 496 kts 220°
2026-05-04 15:25 -34.82518 176.31992 36453 ft 497 kts 220°
2026-05-04 15:26 -34.90797 176.24461 36450 ft 497 kts 220°
2026-05-04 15:26 -34.99116 176.16875 36445 ft 498 kts 220°
2026-05-04 15:27 -35.07397 176.09305 36447 ft 497 kts 220°
2026-05-04 15:28 -35.15705 176.01689 36443 ft 496 kts 220°
2026-05-04 15:29 -35.23969 175.94093 36432 ft 497 kts 220°
2026-05-04 15:30 -35.43253 175.76294 36250 ft 490 kts 220°
2026-05-04 15:31 -35.48687 175.71257 34737 ft 496 kts 221°
2026-05-04 15:31 -35.51472 175.68672 33814 ft 502 kts 221°
2026-05-04 15:32 -35.59831 175.60899 31026 ft 505 kts 220°
2026-05-04 15:32 -35.65343 175.55768 30055 ft 490 kts 220°
2026-05-04 15:33 -35.70708 175.50763 28989 ft 480 kts 220°
2026-05-04 15:34 -35.78530 175.43448 27354 ft 466 kts 220°
2026-05-04 15:34 -35.81090 175.41048 26808 ft 462 kts 220°
2026-05-04 15:34 -35.86173 175.36281 25713 ft 454 kts 219°
2026-05-04 15:35 -35.91148 175.31607 24625 ft 447 kts 220°
2026-05-04 15:35 -35.93626 175.29274 24064 ft 443 kts 220°
2026-05-04 15:35 -35.96055 175.26988 23537 ft 440 kts 220°
2026-05-04 15:36 -36.00894 175.22426 22447 ft 434 kts 219°
2026-05-04 15:36 -36.03318 175.20138 21892 ft 432 kts 219°
2026-05-04 15:36 -36.05673 175.17914 21356 ft 429 kts 219°
2026-05-04 15:37 -36.08046 175.15669 20799 ft 427 kts 219°
2026-05-04 15:37 -36.10397 175.13446 20234 ft 425 kts 218°
2026-05-04 15:37 -36.12735 175.11232 19678 ft 423 kts 218°
2026-05-04 15:37 -36.15046 175.09042 19112 ft 420 kts 218°
2026-05-04 15:38 -36.17375 175.06834 18571 ft 418 kts 218°
2026-05-04 15:38 -36.19648 175.04678 18033 ft 416 kts 218°
2026-05-04 15:38 -36.21944 175.02498 17462 ft 414 kts 218°
2026-05-04 15:38 -36.24210 175.00345 16911 ft 411 kts 218°
2026-05-04 15:39 -36.26483 174.98183 16340 ft 408 kts 218°
2026-05-04 15:39 -36.28722 174.96053 15804 ft 406 kts 218°
2026-05-04 15:39 -36.33165 174.91820 14692 ft 401 kts 218°
2026-05-04 15:40 -36.35366 174.89720 14092 ft 401 kts 218°
2026-05-04 15:40 -36.37563 174.87622 13269 ft 406 kts 218°
2026-05-04 15:40 -36.39805 174.85481 12572 ft 406 kts 218°
2026-05-04 15:40 -36.42026 174.83359 11925 ft 398 kts 218°
2026-05-04 15:41 -36.44197 174.81282 11431 ft 394 kts 218°
2026-05-04 15:41 -36.46354 174.79216 10926 ft 390 kts 217°
2026-05-04 15:41 -36.48469 174.77191 10771 ft 376 kts 217°
2026-05-04 15:41 -36.50496 174.75249 10684 ft 362 kts 217°
2026-05-04 15:42 -36.52440 174.73384 10559 ft 349 kts 217°
2026-05-04 15:42 -36.54350 174.71552 10417 ft 338 kts 217°
2026-05-04 15:42 -36.56163 174.69810 10273 ft 328 kts 217°
2026-05-04 15:42 -36.57941 174.68102 10129 ft 318 kts 217°
2026-05-04 15:43 -36.59659 174.66450 9970 ft 309 kts 217°
2026-05-04 15:43 -36.61357 174.64816 9587 ft 306 kts 217°
2026-05-04 15:43 -36.63038 174.63199 9187 ft 305 kts 217°
2026-05-04 15:43 -36.64708 174.61589 8790 ft 303 kts 217°
2026-05-04 15:44 -36.66372 174.59985 8434 ft 301 kts 217°
2026-05-04 15:44 -36.68038 174.58401 8060 ft 301 kts 213°
2026-05-04 15:44 -36.69839 174.57086 7754 ft 298 kts 207°
2026-05-04 15:44 -36.71661 174.55899 7533 ft 292 kts 206°
2026-05-04 15:45 -36.73450 174.54736 7304 ft 287 kts 206°
2026-05-04 15:45 -36.75197 174.53595 7088 ft 283 kts 207°
2026-05-04 15:45 -36.76937 174.52451 6861 ft 281 kts 207°
2026-05-04 15:45 -36.78649 174.51325 6613 ft 281 kts 207°
2026-05-04 15:46 -36.80395 174.50176 6373 ft 281 kts 206°
2026-05-04 15:46 -36.82097 174.49052 6148 ft 279 kts 206°
2026-05-04 15:46 -36.83813 174.47922 5920 ft 278 kts 206°
2026-05-04 15:46 -36.85512 174.46802 5693 ft 276 kts 207°
2026-05-04 15:47 -36.87214 174.45679 5458 ft 274 kts 207°
2026-05-04 15:47 -36.88893 174.44569 5235 ft 273 kts 206°
2026-05-04 15:47 -36.90634 174.43677 4993 ft 269 kts 187°
2026-05-04 15:47 -36.92484 174.43655 4808 ft 265 kts 171°
2026-05-04 15:48 -36.94324 174.43947 4676 ft 265 kts 168°
2026-05-04 15:48 -36.96120 174.44278 4523 ft 259 kts 168°
2026-05-04 15:48 -36.99586 174.44923 4223 ft 244 kts 168°
2026-05-04 15:49 -37.01227 174.45229 4070 ft 236 kts 168°
2026-05-04 15:49 -37.02828 174.45526 3928 ft 228 kts 168°
2026-05-04 15:49 -37.04377 174.45815 3787 ft 220 kts 168°
2026-05-04 15:49 -37.05873 174.46100 3650 ft 214 kts 164°
2026-05-04 15:50 -37.07190 174.46791 3511 ft 198 kts 140°
2026-05-04 15:50 -37.08112 174.47971 3393 ft 185 kts 117°
2026-05-04 15:50 -37.08634 174.49396 3285 ft 179 kts 99°
2026-05-04 15:50 -37.08729 174.50913 3187 ft 175 kts 79°
2026-05-04 15:51 -37.08461 174.52393 3089 ft 173 kts 70°
2026-05-04 15:51 -37.08089 174.53793 3010 ft 164 kts 68°
2026-05-04 15:51 -37.07708 174.55145 2998 ft 163 kts 68°
2026-05-04 15:51 -37.07334 174.56471 3009 ft 162 kts 68°
2026-05-04 15:52 -37.06959 174.57816 3022 ft 163 kts 68°
2026-05-04 15:52 -37.06591 174.59142 3002 ft 163 kts 68°
2026-05-04 15:52 -37.06217 174.60495 2790 ft 160 kts 68°
2026-05-04 15:52 -37.05860 174.61789 2585 ft 159 kts 69°
2026-05-04 15:53 -37.05505 174.63077 2371 ft 151 kts 69°
2026-05-04 15:53 -37.05178 174.64261 2196 ft 140 kts 69°
2026-05-04 15:53 -37.04858 174.65418 2000 ft 141 kts 69°
2026-05-04 15:53 -37.04539 174.66574 1820 ft 141 kts 69°
2026-05-04 15:54 -37.04223 174.67722 1629 ft 141 kts 69°
2026-05-04 15:54 -37.03900 174.68890 1432 ft 141 kts 69°
2026-05-04 15:54 -37.03578 174.70055 1235 ft 141 kts 70°
2026-05-04 15:54 -37.03258 174.71213 1041 ft 142 kts 70°
2026-05-04 15:55 -37.02930 174.72369 814 ft 138 kts 70°
2026-05-04 15:55 -37.02611 174.73488 637 ft 138 kts 72°
2026-05-04 15:55 -37.02307 174.74626 461 ft 137 kts 73°
2026-05-04 15:55 -37.01997 174.75783 265 ft 146 kts 72°
2026-05-04 15:56 -37.01667 174.76952 76 ft 139 kts 73°
2026-05-04 15:56 -37.01374 174.78035 32 ft 117 kts 68°
2026-05-04 15:56 -37.01162 174.78786 31 ft 64 kts 71°
2026-05-04 15:56 -37.01053 174.79175 34 ft 41 kts 70°
2026-05-04 15:57 -37.00954 174.79495 36 ft 36 kts 58°
2026-05-04 15:57 -37.00835 174.79671 38 ft 19 kts 40°
2026-05-04 15:57 -37.00747 174.79729 41 ft 12 kts 344°
2026-05-04 15:57 -37.00731 174.79642 40 ft 12 kts 251°
2026-05-04 15:58 -37.00766 174.79513 38 ft 19 kts 252°
2026-05-04 15:58 -37.00814 174.79338 35 ft 23 kts 250°
2026-05-04 15:58 -37.00867 174.79144 37 ft 23 kts 251°
2026-05-04 15:58 -37.00925 174.78937 35 ft 26 kts 250°
2026-05-04 15:59 -37.00987 174.78709 32 ft 28 kts 251°
2026-05-04 15:59 -37.01049 174.78481 31 ft 26 kts 251°
2026-05-04 15:59 -37.01109 174.78270 31 ft 24 kts 250°
2026-05-04 15:59 -37.01157 174.78101 32 ft 15 kts 251°
2026-05-04 16:00 -37.01192 174.77974 31 ft 14 kts 250°
2026-05-04 16:00 -37.01225 174.77855 31 ft 14 kts 251°
2026-05-04 16:00 -37.01206 174.77753 31 ft 13 kts 322°
2026-05-04 16:00 -37.01118 174.77705 32 ft 14 kts 340°
2026-05-04 16:01 -37.01017 174.77663 34 ft 15 kts 341°
2026-05-04 16:01 -37.00906 174.77614 35 ft 17 kts 341°
2026-05-04 16:01 -37.00795 174.77567 36 ft 15 kts 341°
2026-05-04 16:01 -37.00712 174.77567 38 ft 10 kts 22°
2026-05-04 16:02 -37.00675 174.77624 40 ft 7 kts 75°
2026-05-04 16:02 -37.00661 174.77687 41 ft 8 kts 72°
2026-05-04 16:02 -37.00613 174.77864 42 ft 10 kts 71°
2026-05-04 16:03 -37.00598 174.77946 43 ft 9 kts 89°
2026-05-04 16:03 -37.00584 174.78014 43 ft 7 kts 48°
2026-05-04 16:03 -37.00559 174.78024 43 ft 2 kts 339°
2026-05-04 16:03 -37.00543 174.78017 44 ft 3 kts 340°
2026-05-04 16:04 -37.00515 174.78005 44 ft 3 kts 341°
2026-05-04 16:04 -37.00492 174.77995 45 ft 1 kts 341°
2026-05-04 16:04 -37.00485 174.77992 45 ft 1 kts 340°
2026-05-04 16:05 -37.00480 174.77989 45 ft 0 kts 341°